Location: Bord�res
(43.2000°N, 0.2167°W)
Time: 11:37:27
(UTC+00:00)

Cosmos 1727 Rocket - Pass Details

Date: 03 March 2021
Orbit: 962 x 996 km, 82.9° (Epoch: 20 April)

Event Time Altitude Azimuth Distance (km) Brightness Sun altitude
Rises 20:28:13 0° 350° (N) 3,657 7.4 -28.8°
Reaches altitude 10° 20:30:43 10° 349° (NNW) 2,708 6.7 -29.2°
Maximum altitude 20:36:53 74° 265° (W) 1,005 4.0 -30.2°
Enters shadow 20:37:42 65° 213° (SSW) 1,058 4.1 -30.4°
